Weather History for Middletown, OH

Change the Weather History Date:

Friday, December 7, 2012

  Actual Average (KDAY) Record (KDAY)
Temperature  
Mean Temperature 48 °F 34 °F  
Max Temperature 52 °F 41 °F 68 °F (1998)
Min Temperature 45 °F 27 °F -1 °F (1977)
Degree Days  
Heating Degree Days 16 31  
Month to date heating degree days 211  
Since 1 July heating degree days 1322  
Cooling Degree Days 0 0  
Month to date cooling degree days 0  
Year to date cooling degree days 891  
Moisture  
Dew Point 49 °F    
Average Humidity 100    
Maximum Humidity 100    
Minimum Humidity 100    
Precipitation  
Precipitation 0.00 in 0.11 in 0.84 in (1956)
Month to date precipitation 0.72  
Year to date precipitation 38.65  
Snow  
Snow 0.00 in 0.10 in 1.60 in (1950)
Month to date snowfall 0.6  
Since 1 July snowfall 1.6  
Snow Depth -    
Sea Level Pressure  
Sea Level Pressure 29.94 in    
Wind  
Wind Speed 1 mph (East)    
Max Wind Speed 7 mph    
Max Gust Speed -    
Visibility 3 miles    
Events Fog , Rain    
T = Trace of Precipitation, MM = Missing Value Source: NWS Daily Summary

Daily Weather History Graph

Daily Weather History Graph

Search for Another Location

Airport:

Trip Planner

Search our weather history database for the weather conditions in past years. The results will help you decide how hot, cold, wet, or windy it might be!

Date:

Astronomy

Dec. 07, 2012 Rise Set
Actual Time 7:44 AM EST 5:13 PM EST
Civil Twilight 7:14 AM EST 5:43 PM EST
Nautical Twilight 6:41 AM EST 6:17 PM EST
Astronomical Twilight 6:08 AM EST 6:49 PM EST
Moon 1:04 AM EST (12/7) 1:08 PM EST (12/7)
Length of Visible Light 10h 28m
Length of Day
9h 28m
Last Quarter, 39% of the Moon is Illuminated
Dec 7
Last Quarter
Dec 13
New
Dec 20
First Quarter
Dec 28
Full
Jan 4
Last Quarter

Hourly Weather History & Observations

Time (EST) Temp. Dew Point Humidity Pressure Visibility Wind Dir Wind Speed Gust Speed Precip Events Conditions
12:15 AM 47.7 °F 47.7 °F 100% 30.00 in 2.5 mi Calm Calm - N/A   Unknown
12:35 AM 45.1 °F 45.1 °F 100% 29.99 in 2.5 mi Calm Calm - N/A   Unknown
12:55 AM 45.1 °F 45.1 °F 100% 30.00 in 4.0 mi Calm Calm - N/A   Unknown
1:15 AM 45.1 °F 45.1 °F 100% 29.99 in 2.0 mi Calm Calm - N/A   Unknown
1:35 AM 45.1 °F 45.1 °F 100% 29.99 in 2.5 mi Calm Calm - N/A   Unknown
1:55 AM 45.1 °F 45.1 °F 100% 29.99 in 2.5 mi Calm Calm - N/A   Overcast
2:15 AM 45.1 °F 45.1 °F 100% 29.99 in 3.0 mi Calm Calm - N/A   Overcast
2:35 AM 45.1 °F 45.1 °F 100% 29.99 in 4.0 mi Calm Calm - N/A   Overcast
2:55 AM 45.1 °F 45.1 °F 100% 29.99 in 4.0 mi Calm Calm - N/A   Overcast
3:15 AM 45.1 °F 45.1 °F 100% 29.99 in 4.0 mi Calm Calm - N/A   Overcast
3:35 AM 45.5 °F 45.5 °F 100% 29.99 in 4.0 mi Calm Calm - N/A   Overcast
3:55 AM 47.7 °F 47.7 °F 100% 29.99 in 4.0 mi Calm Calm - N/A   Overcast
4:15 AM 47.7 °F 47.7 °F 100% 29.99 in 3.0 mi Calm Calm - N/A   Overcast
4:35 AM 47.7 °F 47.7 °F 100% 29.98 in 3.0 mi Calm Calm - N/A   Overcast
4:55 AM 47.7 °F 47.7 °F 100% 29.98 in 2.5 mi Calm Calm - N/A   Overcast
5:15 AM 47.7 °F 47.7 °F 100% 29.98 in 0.5 mi Calm Calm - N/A Fog Fog
5:35 AM 47.7 °F 47.7 °F 100% 29.99 in 0.5 mi Calm Calm - N/A Fog Fog
5:55 AM 47.7 °F 47.7 °F 100% 29.98 in 0.5 mi Calm Calm - N/A Fog Fog
6:15 AM 47.7 °F 47.7 °F 100% 29.98 in 0.2 mi Calm Calm - N/A Fog Fog
6:35 AM 47.7 °F 47.7 °F 100% 29.98 in 0.2 mi Calm Calm - N/A Fog Fog
6:55 AM 47.7 °F 47.7 °F 100% 29.99 in 0.2 mi Calm Calm - N/A Fog Fog
7:15 AM 47.7 °F 47.7 °F 100% 30.00 in 0.2 mi Calm Calm - N/A Fog Fog
7:35 AM 47.7 °F 47.7 °F 100% 29.99 in 0.2 mi Calm Calm - N/A Fog Fog
7:55 AM 47.7 °F 47.7 °F 100% 29.99 in 0.2 mi Calm Calm - N/A Fog Fog
8:15 AM 47.7 °F 47.7 °F 100% 29.99 in 0.2 mi Calm Calm - N/A Fog Fog
8:35 AM 47.7 °F 47.7 °F 100% 30.00 in 0.2 mi Calm Calm - N/A Fog Fog
8:55 AM 47.7 °F 47.7 °F 100% 30.00 in 0.5 mi Calm Calm - N/A Fog Fog
9:15 AM 47.7 °F 47.7 °F 100% 30.00 in 0.5 mi Calm Calm - N/A Fog Fog
9:35 AM 47.7 °F 47.7 °F 100% 30.01 in 0.8 mi Calm Calm - N/A   Overcast
9:55 AM 47.7 °F 47.7 °F 100% 30.00 in 0.8 mi Calm Calm - N/A Rain Rain
10:15 AM 47.7 °F 47.7 °F 100% 30.00 in 0.8 mi Calm Calm - N/A   Drizzle
10:35 AM 47.7 °F 47.7 °F 100% 30.01 in 0.5 mi Calm Calm - N/A Rain Rain
10:55 AM 47.7 °F 47.7 °F 100% 30.00 in 0.8 mi Calm Calm - N/A Rain Rain
11:15 AM 48.6 °F 48.6 °F 100% 29.99 in 1.5 mi NE 3.5 mph - N/A Rain Light Rain
11:35 AM 49.1 °F 49.1 °F 100% 29.98 in 2.0 mi Calm Calm - N/A Rain Light Rain
11:55 AM 49.1 °F 49.1 °F 100% 29.98 in 3.0 mi NE 3.5 mph - N/A Rain Light Rain
12:15 PM 49.1 °F 49.1 °F 100% 29.97 in 3.0 mi Calm Calm - N/A Rain Light Rain
12:35 PM 48.9 °F 48.9 °F 100% 29.96 in 3.0 mi Calm Calm - N/A Rain Light Rain
12:55 PM 49.1 °F 49.1 °F 100% 29.95 in 3.0 mi Calm Calm - N/A Rain Light Rain
1:15 PM 50.2 °F 50.2 °F 100% 29.94 in 4.0 mi Calm Calm - N/A Rain Light Rain
1:35 PM 50.2 °F 50.2 °F 100% 29.93 in 4.0 mi Calm Calm - N/A Rain Rain
1:55 PM 50.2 °F 50.2 °F 100% 29.92 in 3.0 mi NE 3.5 mph - N/A Rain Rain
2:15 PM 50.2 °F 50.2 °F 100% 29.91 in 5.0 mi ENE 5.8 mph - N/A   Overcast
2:35 PM 50.2 °F 50.2 °F 100% 29.90 in 10.0 mi ENE 3.5 mph - N/A   Overcast
2:55 PM 50.2 °F 50.2 °F 100% 29.89 in 7.0 mi NE 5.8 mph - N/A   Overcast
3:15 PM 50.2 °F 50.2 °F 100% 29.90 in 5.0 mi Calm Calm - N/A Rain Rain
3:35 PM 50.2 °F 50.2 °F 100% 29.90 in 3.0 mi Calm Calm - N/A Rain Rain
3:55 PM 50.2 °F 50.2 °F 100% 29.89 in 5.0 mi Calm Calm - N/A Rain Rain
4:15 PM 50.2 °F 50.2 °F 100% 29.90 in 3.0 mi NNE 3.5 mph - N/A Rain Rain
4:35 PM 50.2 °F 50.2 °F 100% 29.90 in 3.0 mi NE 4.6 mph - N/A Rain Rain
4:55 PM 50.0 °F 50.0 °F 100% 29.89 in 2.5 mi ENE 5.8 mph - N/A Rain Rain
5:15 PM 50.2 °F 50.2 °F 100% 29.89 in 5.0 mi NNE 3.5 mph - N/A   Overcast
5:35 PM 50.2 °F 50.2 °F 100% 29.89 in 5.0 mi Calm Calm - N/A Rain Rain
5:55 PM 49.6 °F 49.6 °F 100% 29.89 in 3.0 mi Calm Calm - N/A Rain Rain
6:15 PM 49.6 °F 49.6 °F 100% 29.89 in 2.5 mi Calm Calm - N/A Rain Rain
6:35 PM 50.0 °F 50.0 °F 100% 29.88 in 3.0 mi Calm Calm - N/A Rain Light Rain
6:55 PM 50.2 °F 50.2 °F 100% 29.88 in 2.5 mi Calm Calm - N/A   Overcast
7:15 PM 50.2 °F 50.2 °F 100% 29.88 in 2.5 mi Calm Calm - N/A   Overcast
7:35 PM 50.2 °F 50.2 °F 100% 29.88 in 2.5 mi Calm Calm - N/A   Overcast
8:15 PM 50.2 °F 50.2 °F 100% 29.87 in 3.0 mi Calm Calm - N/A   Overcast
8:35 PM 52.2 °F 52.2 °F 100% 29.87 in 4.0 mi Calm Calm - N/A   Overcast
8:55 PM 52.7 °F 52.7 °F 100% 29.86 in 5.0 mi SSW 3.5 mph - N/A   Overcast
9:15 PM 52.7 °F 52.7 °F 100% 29.86 in 4.0 mi SSW 3.5 mph - N/A   Overcast
9:35 PM 52.7 °F 52.7 °F 100% 29.85 in 4.0 mi SSW 3.5 mph - N/A   Overcast
9:55 PM 52.7 °F 52.7 °F 100% 29.85 in 4.0 mi SSW 4.6 mph - N/A   Overcast
10:15 PM 52.7 °F 52.7 °F 100% 29.85 in 4.0 mi WSW 5.8 mph - N/A Rain Rain
10:55 PM 52.7 °F 52.7 °F 100% 29.85 in 7.0 mi WSW 6.9 mph - N/A   Overcast
11:15 PM 52.7 °F 52.7 °F 100% 29.85 in 7.0 mi SW 5.8 mph - N/A   Overcast
11:35 PM 52.7 °F 52.7 °F 100% 29.86 in 7.0 mi SW 5.8 mph - N/A   Overcast
11:55 PM 52.7 °F 52.7 °F 100% 29.86 in 7.0 mi SW 4.6 mph - N/A   Overcast